Regional Weather Roundup
Issued by NWS

Home | Current Version | Previous Version | Text Only | Print | Product List | Glossary On
Versions: 1 2 3 4 5 6 7 8 9 10 11 12 13 14 15 16 17 18 19 20 21 22 23 24 25 26 27 28 29 30 31 32 33 34 35 36 37 38 39 40 41 42 43 44 45 46 47 48 49 50
000
ASUS44 KOUN 301510
RWROK

WEATHER ROUNDUP FOR OKLAHOMA
NATIONAL WEATHER SERVICE NORMAN OK
1000 AM CDT FRI SEP 30 2016

NOTE: "FAIR" INDICATES FEW OR NO CLOUDS BELOW 12,000 FEET WITH NO
      SIGNIFICANT WEATHER AND/OR OBSTRUCTIONS TO VISIBILITY.

OKZ001>007-009>012-014-015-017-301600-
NORTHWEST OKLAHOMA AND THE PANHANDLE

CITY           SKY/WX    TMP DP  RH WIND       PRES   REMARKS
GAGE           SUNNY     63  49  60 SE7       30.26F
GUYMON         SUNNY     60  45  57 S13G18    30.22F
$$

OKZ016-021>023-033>039-044-045-301600-
SOUTHWEST OKLAHOMA

CITY           SKY/WX    TMP DP  RH WIND       PRES   REMARKS
LAWTON/REGL    SUNNY     64  52  64 E6        30.27S
LAWTON/FT SILL SUNNY     63  53  70 NE5       30.25S
FREDERICK      SUNNY     64  52  64 E6        30.24S
CLINTON        SUNNY     62  51  67 E3        30.29S
HOBART         SUNNY     61  53  75 E7        30.27S
ALTUS AFB      SUNNY     63  51  66 SE5       30.27R
$$

OKZ018>020-024>031-301600-
CENTRAL OKLAHOMA

CITY           SKY/WX    TMP DP  RH WIND       PRES   REMARKS
OKLAHOMA CITY  MOSUNNY   65  51  60 CALM      30.26S
OKC/WILEY POST SUNNY     63  51  65 CALM      30.27S
OKC/TINKER AFB SUNNY     63  49  59 VRB1      30.26S
STILLWATER     SUNNY     63  54  72 CALM      30.26F
GUTHRIE        SUNNY     61  54  77 CALM      30.27S
$$

OKZ008-013-054>072-301600-
NORTHEAST OKLAHOMA

CITY           SKY/WX    TMP DP  RH WIND       PRES   REMARKS
TULSA          MOSUNNY   62  52  69 N5        30.24S
TULSA/JONES    SUNNY     65  51  60 NE6       30.25S
PONCA CITY     SUNNY     62  53  72 CALM      30.26S
BARTLESVILLE   SUNNY     65  52  62 CALM      30.26S
MUSKOGEE       SUNNY     65  52  62 N6        30.24F
$$

OKZ032-040>043-046>053-073>077-301600-
SOUTH CENTRAL/SOUTHEAST OKLAHOMA

CITY           SKY/WX    TMP DP  RH WIND       PRES   REMARKS
ARDMORE/DWNTWN SUNNY     64  50  59 NE5       30.25S
MCALESTER      MOSUNNY   65  50  58 VRB3      30.24S
$$




USA.gov is the U.S. government's official web portal to all federal, state and local government web resources and services.